Regional Weather Roundup
Issued by NWS

Current Version | Previous Version | Text Only | Print | Product List | Glossary On
Versions: 1 2 3 4 5 6 7 8 9 10 11 12 13 14 15 16 17 18 19 20 21 22 23 24 25 26 27 28 29 30 31 32 33 34 35 36 37 38 39 40 41 42 43 44 45 46 47 48 49 50
000
ASUS46 KPQR 131810
RWROR

OREGON REGIONAL WEATHER ROUNDUP
NATIONAL WEATHER SERVICE PORTLAND OR
1100 AM PDT SUN JUL 13 2014

NOTE: "FAIR" INDICATES FEW OR NO CLOUDS BELOW 12,000 FEET WITH
NO SIGNIFICANT WEATHER AND/OR OBSTRUCTIONS TO VISIBILITY.

ORZ001>013-131900-
NORTHWEST OREGON


CITY           SKY/WX    TMP DP  RH WIND       PRES   REMARKS
ASTORIA        CLOUDY    57  54  89 W8        30.14R
6HR MIN TEMP:  56; 6HR MAX TEMP:  58;

NEWPORT        CLOUDY    57  57 100 NW3       30.17S
PORTLAND       DRIZZLE   68  60  75 CALM      30.07F
6HR MIN TEMP:  62; 6HR MAX TEMP:  68; 6HR PCP: TRACE;

VANCOUVER WA   LGT RAIN  67  59  75 CALM      30.08R
6HR MIN TEMP:  62; 6HR MAX TEMP:  68; 6HR PCP: TRACE;

SCAPPOOSE      CLOUDY    67  59  75 E7        30.08F
6HR MIN TEMP:  58; 6HR MAX TEMP:  70;

HILLSBORO      CLOUDY    71  59  65 VRB3      30.06F
6HR MIN TEMP:  60; 6HR MAX TEMP:  71;

AURORA         CLOUDY    64  59  83 VRB5      30.10R
6HR MIN TEMP:  57; 6HR MAX TEMP:  65; 6HR PCP: TRACE;

MCMINNVILLE    PTSUNNY   65  59  81 MISG      30.10R
6HR MIN TEMP:  57; 6HR MAX TEMP:  65; 6HR PCP:  0.01;

SALEM          PTSUNNY   65  59  81 S8        30.09S
6HR MIN TEMP:  60; 6HR MAX TEMP:  66; 6HR PCP:  0.02;

CORVALLIS      PTSUNNY   63  55  77 N9        30.11F
EUGENE         CLOUDY    62  57  83 SW8       30.11F
6HR MIN TEMP:  58; 6HR MAX TEMP:  63; 6HR PCP:  0.11;

$$

ORZ021-028-131900-
SOUTHWEST OREGON


CITY           SKY/WX    TMP DP  RH WIND       PRES   REMARKS
NORTH BEND     CLOUDY    63  63 100 NW6       30.16S
6HR MIN TEMP:  55; 6HR MAX TEMP:  63;

BROOKINGS      CLOUDY    56  55  96 VRB3      30.15S FOG
ROSEBURG       MOSUNNY   69  55  60 N9        30.11S
6HR MIN TEMP:  61; 6HR MAX TEMP:  70;

SEXTON SUMMIT  MOSUNNY   70  59  68 NW5       30.17S
6HR MIN TEMP:  63; 6HR MAX TEMP:  73;

MEDFORD        SUNNY     86  57  37 VRB3      30.02F
6HR MIN TEMP:  71; 6HR MAX TEMP:  87;

$$

ORZ009-041-131900-
COLUMBIA GORGE


CITY           SKY/WX    TMP DP  RH WIND       PRES   REMARKS
TROUTDALE      LGT RAIN  69  60  73 NE7       30.05F
6HR MIN TEMP:  63; 6HR MAX TEMP:  69; 6HR PCP: TRACE;

THE DALLES     CLOUDY    74  64  71 N3        30.03F
6HR MIN TEMP:  69; 6HR MAX TEMP:  76; 6HR PCP: TRACE;

$$

ORZ029>031-042>050-061>064-131900-
EASTERN OREGON


CITY           SKY/WX    TMP DP  RH WIND       PRES   REMARKS
REDMOND        MOSUNNY   85  42  22 NW13      30.12F
6HR MIN TEMP:  59; 6HR MAX TEMP:  86;

BEND           PTCLDY    84  39  20 N7        30.16S
KLAMATH FALLS  SUNNY     83  50  31 VRB3      30.14F
6HR MIN TEMP:  59; 6HR MAX TEMP:  84;

LAKEVIEW       SUNNY     91  48  22 NE3       30.20F
HERMISTON      CLOUDY    90  51  26 NW6       30.01F
6HR MIN TEMP:  59; 6HR MAX TEMP:  90;

PENDLETON      PTSUNNY   93  40  15 CALM      30.04F
6HR MIN TEMP:  65; 6HR MAX TEMP:  94;

JOHN DAY       CLEAR     90  41  18 CALM      30.17F
MEACHAM        CLOUDY    89  41  18 VRB5      30.21S
6HR MIN TEMP:  48; 6HR MAX TEMP:  89;

LA GRANDE      PTSUNNY   79  46  31 N3        30.16F
6HR MIN TEMP:  54; 6HR MAX TEMP:  79;

BAKER CITY     MOSUNNY   84  47  27 NW6       30.20F
6HR MIN TEMP:  49; 6HR MAX TEMP:  84;

BURNS          SUNNY     92  39  15 E12G18    30.20F
6HR MIN TEMP:  54; 6HR MAX TEMP:  92;

ROME             N/A     92  38  15 VRB7      30.17F
6HR MIN TEMP:  58; 6HR MAX TEMP:  92;

ONTARIO        NOT AVBL
$$


USA.gov is the U.S. government's official web portal to all federal, state and local government web resources and services.